SCP
1 2 2 3 1 1 0 0 0 0 0 0 0 0 0 0 0 0 0 0 0 0
3 3 2 1 1 0 0 0 0 0 0 0 0 0 0 0 0 0 0 0 0 0
3 2 1 0 0 0 0 0 0 0 0 0 0 0 0 0 0 0 0 0 0 0
2 1 0 0 0 0 0 0 0 0 0 0 0 0 0 0 0 0 0 0 0 0
1 0 0 0 0 0 0 0 0 0 0 0 0 0 0 0 0 0 0 0 0 0
0 0 0 0 0 0 0 0 0 0 0 0 0 0 0 0 0 0 0 0 0 0
0 0 0 0 0 0 0 0 0 0 0 0 0 0 0 0 0 0 0 0 0 0
0 0 0 0 0 0 0 0 0 0 0 0 0 0 0 0 0 0 0 0 0 0
-0 0 0 0 0 0 0 0 0 0 0 0 0 0 0 0 0 0 0 0 0 0
0 0 0 0 0 0 0 0 0 0 0 0 0 0 0 0 0 0 0 0 0 0
0 0 0 0 0 0 0 0 0 0 0 0 0 0 0 0 0 0 0 0 0 0
0 0 0 0 0 0 0 0 0 0 0 0 0 0 0 0 0 0 0 0 0 0
0 0 0 0 0 0 0 0 0 0 0 0 0 0 0 0 0 0 0 0 0 0
0 0 0 0 0 0 0 0 0 0 0 0 0 0 0 0 0 0 0 0 0 0
Wind_Speed_500mb
52 46 41 35 36 36 29 29 23 20 14 9 1 6 12 16 15 24 26 29 27 20
52 48 46 48 43 35 28 31 26 23 10 4 3 8 14 18 22 22 22 20 24 21
56 57 46 39 36 36 31 25 26 17 9 2 6 8 13 17 20 20 21 16 21 26
60 51 44 41 37 28 29 27 17 10 5 3 8 14 16 18 17 19 17 18 20 23
61 49 46 40 31 33 30 22 15 12 10 9 11 13 14 14 16 17 18 19 22 24
59 50 47 42 40 36 27 20 16 13 10 11 14 16 16 16 18 19 19 21 22 24
57 51 48 43 39 32 24 19 17 15 16 15 14 16 19 20 19 18 17 20 21 22
54 51 46 41 37 31 26 23 22 19 17 18 19 19 17 20 19 18 19 21 22 23
56 52 48 41 36 33 30 27 26 25 22 21 20 19 18 17 17 17 18 19 23 22
59 52 43 39 36 32 30 28 27 24 21 20 18 17 18 17 15 15 18 22 27 28
52 48 43 39 35 32 30 29 29 25 20 17 16 17 19 21 17 14 18 22 29 39
48 46 42 39 37 33 31 31 27 23 20 15 12 10 12 14 13 17 17 23 39 41
47 45 43 40 37 35 32 30 24 22 16 10 9 9 12 15 16 16 19 17 26 41
48 46 43 42 37 34 31 28 23 18 15 13 16 16 17 18 19 20 21 23 30 34
Wind_Direction_500mb
153 147 133 133 141 166 161 151 164 186 157 168 263 310 328 318 322 336 331 324 330 352
143 130 149 163 171 171 150 149 154 159 155 147 247 297 315 319 326 332 346 2 345 347
135 160 167 159 152 149 150 158 162 171 162 206 300 339 340 350 352 3 11 7 342 349
156 159 149 152 150 152 154 152 150 151 163 61 6 1 0 14 22 27 19 3 5 4
159 145 146 147 148 146 145 148 151 105 82 45 19 20 38 38 31 22 15 23 20 7
151 141 140 143 146 145 146 128 107 98 77 64 59 57 52 43 34 31 29 23 13 3
146 143 144 141 142 139 132 127 115 105 96 92 93 79 53 44 40 36 21 17 13 360
145 143 143 146 137 132 124 117 109 103 97 97 90 75 60 64 31 27 22 19 14 354
143 146 141 136 131 124 119 113 106 101 98 101 85 71 64 60 44 26 22 16 12 21
133 132 127 123 120 122 117 114 105 103 109 102 90 69 51 40 43 24 18 8 5 6
124 122 123 121 119 113 113 110 103 99 100 92 70 48 34 33 33 10 7 4 351 351
124 121 119 116 113 111 109 106 106 104 92 78 55 33 19 19 22 357 7 353 335 345
120 118 116 114 114 113 110 107 107 104 96 76 52 28 8 352 359 345 7 355 344 332
118 116 116 115 114 115 114 111 103 95 75 54 37 27 17 8 3 2 5 352 348 345
Wind_Speed_850mb
52 46 41 35 36 36 29 29 23 20 14 9 1 6 12 16 15 24 26 29 27 20
52 48 46 48 43 35 28 31 26 23 10 4 3 8 14 18 22 22 22 20 24 21
56 57 46 39 36 36 31 25 26 17 9 2 6 8 13 17 20 20 21 16 21 26
60 51 44 41 37 28 29 27 17 10 5 3 8 14 16 18 17 19 17 18 20 23
61 49 46 40 31 33 30 22 15 12 10 9 11 13 14 14 16 17 18 19 22 24
59 50 47 42 40 36 27 20 16 13 10 11 14 16 16 16 18 19 19 21 22 24
57 51 48 43 39 32 24 19 17 15 16 15 14 16 19 20 19 18 17 20 21 22
54 51 46 41 37 31 26 23 22 19 17 18 19 19 17 20 19 18 19 21 22 23
56 52 48 41 36 33 30 27 26 25 22 21 20 19 18 17 17 17 18 19 23 22
59 52 43 39 36 32 30 28 27 24 21 20 18 17 18 17 15 15 18 22 27 28
52 48 43 39 35 32 30 29 29 25 20 17 16 17 19 21 17 14 18 22 29 39
48 46 42 39 37 33 31 31 27 23 20 15 12 10 12 14 13 17 17 23 39 41
47 45 43 40 37 35 32 30 24 22 16 10 9 9 12 15 16 16 19 17 26 41
48 46 43 42 37 34 31 28 23 18 15 13 16 16 17 18 19 20 21 23 30 34
Wind_Direction_850mb
153 147 133 133 141 166 161 151 164 186 157 168 263 310 328 318 322 336 331 324 330 352
143 130 149 163 171 171 150 149 154 159 155 147 247 297 315 319 326 332 346 2 345 347
135 160 167 159 152 149 150 158 162 171 162 206 300 339 340 350 352 3 11 7 342 349
156 159 149 152 150 152 154 152 150 151 163 61 6 1 0 14 22 27 19 3 5 4
159 145 146 147 148 146 145 148 151 105 82 45 19 20 38 38 31 22 15 23 20 7
151 141 140 143 146 145 146 128 107 98 77 64 59 57 52 43 34 31 29 23 13 3
146 143 144 141 142 139 132 127 115 105 96 92 93 79 53 44 40 36 21 17 13 360
145 143 143 146 137 132 124 117 109 103 97 97 90 75 60 64 31 27 22 19 14 354
143 146 141 136 131 124 119 113 106 101 98 101 85 71 64 60 44 26 22 16 12 21
133 132 127 123 120 122 117 114 105 103 109 102 90 69 51 40 43 24 18 8 5 6
124 122 123 121 119 113 113 110 103 99 100 92 70 48 34 33 33 10 7 4 351 351
124 121 119 116 113 111 109 106 106 104 92 78 55 33 19 19 22 357 7 353 335 345
120 118 116 114 114 113 110 107 107 104 96 76 52 28 8 352 359 345 7 355 344 332
118 116 116 115 114 115 114 111 103 95 75 54 37 27 17 8 3 2 5 352 348 345